AO-07 1 07530U 74089B 25352.65363404 -.00000034 00000-0 77399-4 0 9998 2 07530 101.9964 358.9835 0012379 115.4656 6.5203 12.53694354337896 UO-11 1 14781U 84021B 25352.50101061 .00001265 00000-0 13634-3 0 9991 2 14781 97.7818 315.4401 0009188 66.1899 294.0281 14.90160511230218 AO-27 1 22825U 93061C 25352.59278863 .00000100 00000-0 55381-4 0 9990 2 22825 98.7139 54.8739 0007301 269.9829 90.0517 14.30878819681174 FO-29 1 24278U 96046B 25352.61402753 -.00000035 00000-0 13961-5 0 9997 2 24278 98.5459 220.9609 0349413 204.7150 153.6895 13.53262934448748 GO-32 1 25397U 98043D 25352.46690113 .00000069 00000-0 49910-4 0 9999 2 25397 98.9925 335.8113 0001896 48.3559 311.7781 14.24378705425608 ISS 1 25544U 98067A 25352.53865931 .00007413 00000-0 13939-3 0 9990 2 25544 51.6314 113.7624 0003172 267.0099 93.0526 15.49652631543753 NO-44 1 26931U 01043C 25352.39407045 .00000134 00000-0 81201-4 0 9992 2 26931 67.0515 351.8559 0007418 269.6718 90.3534 14.31857941264562 SO-50 1 27607U 02058C 25352.33731994 .00001674 00000-0 21754-3 0 9993 2 27607 64.5543 328.2974 0072485 295.5515 63.8109 14.82414230237642 CO-55 1 27844U 03031E 25352.49146233 .00000314 00000-0 15509-3 0 9992 2 27844 98.6762 358.3203 0009483 356.9402 3.1718 14.24184266165956 CO-57 1 27848U 03031J 25352.46077302 .00000265 00000-0 13573-3 0 9997 2 27848 98.6790 358.1474 0009719 14.9333 345.2131 14.23491533165669 RS-22 1 27939U 03042A 25352.62067221 .00001312 00000-0 21242-3 0 9993 2 27939 98.3358 166.9764 0012254 118.3665 306.2828 14.72987649188969 CO-58 1 28895U 05043F 25352.35586525 .00001431 00000-0 23645-3 0 9992 2 28895 98.2728 139.5287 0015229 61.5464 298.7275 14.71920624 75143 CO-65 1 32785U 08021C 25351.68477250 .00005656 00000-0 38073-3 0 9997 2 32785 97.8081 324.8433 0007829 290.5969 69.4418 15.07103756957832 CO-66 1 32791U 08021J 25352.41396204 .00015347 00000-0 60926-3 0 9995 2 32791 97.7441 337.7552 0002004 178.5065 181.6178 15.25441691959661 RS-30 1 32953U 08025A 25352.58551198 .00000007 00000-0 -16944-4 0 9992 2 32953 82.5020 107.7870 0018808 348.1236 11.9398 12.43172084797256 SRMSAT 1 37841U 11058D 25352.52766590 .00000395 00000-0 71010-4 0 9995 2 37841 19.9721 72.9206 0011898 17.1878 11.9497 14.11513423732265 ZACUBE-1 1 39417U 13066B 25351.39749824 .00003280 00000-0 27002-3 0 9999 2 39417 97.8056 307.9496 0042001 132.1904 228.2897 14.99124350653477 Delfi-N3xt 1 39428U 13066N 25352.50946840 .00006072 00000-0 56913-3 0 9997 2 39428 97.8351 268.3752 0080996 86.6817 274.3663 14.91900606647657 GOMX-1 1 39430U 13066Q 25352.62484691 .00002182 00000-0 33864-3 0 9992 2 39430 97.6586 199.3821 0129295 297.5772 61.2350 14.68613565643401 LO-74 1 39440U 13066AA 25351.56788106 .00003439 00000-0 33426-3 0 9993 2 39440 97.8708 295.2332 0058016 269.4523 90.0047 14.92015584649893 AO-73 1 39444U 13066AE 25352.43550844 .00007183 00000-0 48724-3 0 9997 2 39444 97.8073 315.7836 0041042 97.2072 263.3823 15.06049346652425 DTUSAT-2 1 40030U 14033W 25351.70002679 .00007073 00000-0 41774-3 0 9998 2 40030 98.0754 333.4459 0009697 125.2587 234.9550 15.11812878625232 EO-80 1 40032U 14033Y 25352.50459982 .00007622 00000-0 44858-3 0 9998 2 40032 98.0637 333.6810 0009727 73.7106 286.5192 15.11909956625335 LILACSAT-2 1 40908U 15049K 25352.63072008 .00013243 00000-0 28340-3 0 9996 2 40908 97.4905 18.1948 0007865 175.0049 185.1279 15.44897414567817 IO-86 1 40931U 15052B 25151.18580175 .00001241 00000-0 78118-4 0 9996 2 40931 6.0006 24.0987 0012733 338.8432 21.1169 14.78805930523159 Horyu-4 1 41340U 16012D 25352.47543113 .00046308 00000-0 76029-3 0 9995 2 41340 30.9942 270.5850 0006894 289.3502 70.6402 15.51112318542440 Lapan A3 1 41603U 16040E 25352.64024505 .00003328 00000-0 11138-3 0 9991 2 41603 97.1422 349.9820 0009075 310.1206 49.9240 15.31598917527168 CAS-2T 1 41847U 16066G 25352.44288299 .00000912 00000-0 13883-3 0 9994 2 41847 98.4033 65.1278 0342867 317.8431 39.6845 14.44144329478706 TechnoSat 1 42829U 17042E 25352.45227103 .00003172 00000-0 23640-3 0 9991 2 42829 97.4051 152.4126 0017989 355.7837 4.3235 15.03458317459536 AO-91 1 43017U 17073E 25352.61307677 .00008047 00000-0 38122-3 0 9995 2 43017 97.4942 218.6761 0159267 230.0703 128.6441 15.08982429438120 S-Net D 1 43186U 18014G 25352.30432450 .00004864 00000-0 26829-3 0 9996 2 43186 97.5495 253.3474 0006950 290.9781 69.0707 15.14418639431365 S-Net B 1 43187U 18014H 25352.64284401 .00004414 00000-0 24395-3 0 9992 2 43187 97.5501 253.6638 0007474 283.3929 76.6469 15.14397555431419 S-Net A 1 43188U 18014J 25352.30400922 .00004911 00000-0 27077-3 0 9996 2 43188 97.5508 253.5049 0007438 285.6915 74.3496 15.14425076431361 S-Net C 1 43189U 18014K 25352.57975250 .00004490 00000-0 24807-3 0 9997 2 43189 97.5525 253.8250 0008765 274.8688 85.1543 15.14392052429951 Ten-Koh 1 43677U 18084G 25352.44149281 .00002536 00000-0 19916-3 0 9993 2 43677 98.0744 172.2926 0009097 9.1547 350.9840 15.01853765389023 PO-101 1 43678U 18084H 25352.59123101 .00002365 00000-0 19800-3 0 9995 2 43678 98.1019 176.2889 0007622 31.5778 328.5900 14.99466484389144 QO-100 1 43700U 18090A 25352.55906797 .00000169 00000-0 00000-0 0 9993 2 43700 0.0175 17.3730 0000953 268.7413 28.3685 1.00271444 25864 MinXSS-2 1 43758U 18099A 25352.62348844 .00021363 00000-0 63351-3 0 9996 2 43758 97.4792 60.0686 0009324 190.0699 170.0359 15.34811412386322 AO-95 1 43770U 18099N 25352.11844464 .00010001 00000-0 44046-3 0 9990 2 43770 97.4675 48.3616 0008221 264.2156 95.8143 15.22002381385637 SNUSat 2 1 43782U 18099AA 25352.39241835 .00007676 00000-0 37617-3 0 9996 2 43782 97.4349 43.7023 0010499 200.8126 159.2682 15.18372699385564 SnugLite 1 43784U 18099AC 25352.43284902 .00010994 00000-0 47846-3 0 9997 2 43784 97.4165 43.8095 0002770 179.0176 181.1067 15.22406509385774 ITASat 1 1 43786U 18099AE 25352.63794032 .00006284 00000-0 32857-3 0 9994 2 43786 97.4319 42.8267 0011929 260.6915 99.2969 15.16155738385522 EAGLET 1 1 43790U 18099AJ 25352.39949756 .00003905 00000-0 23629-3 0 9991 2 43790 97.4521 41.7917 0009999 247.1222 112.8953 15.11168435385019 ESEO 1 43792U 18099AL 25352.60500822 .00002246 00000-0 16876-3 0 9997 2 43792 97.4223 32.5489 0011461 226.4318 133.5958 15.03503424384662 JO-97 1 43803U 18099AX 25352.58248672 .00013722 00000-0 51955-3 0 9997 2 43803 97.4420 50.3806 0006353 180.1046 180.0192 15.27022294386007 Suomi 100 1 43804U 18099AY 25352.63295748 .00010777 00000-0 45427-3 0 9994 2 43804 97.4483 49.0482 0010700 190.3519 169.7500 15.23451019385880 ISAT 1 43879U 18111D 25352.57710388 .00034068 00000-0 79223-3 0 9996 2 43879 97.5915 272.5104 0003874 216.4226 143.6758 15.42243681383144 UWE-4 1 43880U 18111E 25352.30645140 .00023140 00000-0 68932-3 0 9996 2 43880 97.5865 268.9855 0007215 250.8189 109.2273 15.34671471382934 Sparrow 1 43881U 18111F 25352.29385921 .00039703 00000-0 85361-3 0 9990 2 43881 97.6100 276.0042 0002004 297.4940 62.6104 15.44556314383226 Prox-1 1 44339U 19036A 25352.35133477 .00012663 00000-0 14065-2 0 9998 2 44339 23.9951 237.6020 0006539 104.9657 255.1566 14.85327280346507 Taurus 1 1 44530U 19059C 25352.62826287 .00005503 00000-0 94181-3 0 9997 2 44530 98.6218 141.8057 0009164 156.9584 203.2032 14.69239941332105 TO-108 1 44881U 19093C 25352.49098541 .00000979 00000-0 11771-3 0 9999 2 44881 97.7759 63.9941 0012950 326.5807 33.4590 14.86115706324575 FloripaSat 1 1 44885U 19093G 25352.50904718 .00005582 00000-0 43767-3 0 9992 2 44885 97.8043 80.7301 0009910 317.5934 42.4523 15.01340871325518 RS-44 1 44909U 19096E 25352.40860779 -.00000001 00000-0 -48186-4 0 9993 2 44909 82.5214 99.8420 0217245 206.8050 152.1694 12.79746135279229 SALSAT 1 46495U 20068K 25352.49730257 .00007375 00000-0 28596-3 0 9993 2 46495 97.8779 340.0804 0009392 206.2655 153.8107 15.26420702287769 CSS (TIANHE-1) 1 48274U 21035A 25352.28684694 .00023377 00000-0 29030-3 0 9999 2 48274 41.4683 343.0261 0007726 79.3286 280.8422 15.59417882264894 TUBIN 1 48900U 21059X 25349.78845228 .07315651 27141-5 56139-3 0 9990 2 48900 97.6553 178.8839 0007270 265.1302 94.9166 16.40417761249824 CUTE 1 49263U 21088D 25352.23157637 .00027244 00000-0 35198-3 0 9992 2 49263 97.4352 75.3277 0004470 244.8766 115.2027 15.58922391234157 TeikyoSat 4 1 49396U 21102B 25352.63779598 .00002222 00000-0 14549-3 0 9992 2 49396 97.3892 24.0158 0011990 187.1020 173.0041 15.08669848225493 Z-Sat 1 49399U 21102E 25352.64984326 .00004731 00000-0 24535-3 0 9996 2 49399 97.3576 28.4156 0017859 152.3628 207.8558 15.16490616226066 KOSEN 1 1 49402U 21102H 25352.61381541 .00006837 00000-0 28664-3 0 9994 2 49402 97.3465 33.3821 0016058 122.0780 238.2019 15.23705498226497 HO-113 1 50466U 21131B 25352.62116572 .00000535 00000-0 17979-3 0 9995 2 50466 98.5054 81.0132 0003075 284.4185 75.6663 14.41120295209100 SNUGLITE 2 1 52899U 22065F 25352.33888060 .00001042 00000-0 20874-3 0 9992 2 52899 98.1932 132.8402 0006702 225.4006 134.6651 14.63851581184530 UmKA 1 (RS40S) 1 57172U 23091G 25352.60809671 .00005174 00000-0 25540-3 0 9997 2 57172 97.5338 47.0477 0014304 34.4568 325.7590 15.18246295136587 CubeBel-2 (EU11S) 1 57175U 23091K 25352.62996299 .00010938 00000-0 45111-3 0 9995 2 57175 97.5338 49.6096 0011679 37.4316 322.7733 15.24179241136759 RS-38S 1 57189U 23091Z 25352.59423823 .00013669 00000-0 47935-3 0 9994 2 57189 97.5362 54.0746 0008235 3.0158 357.1130 15.29535784137027 SONATE-2 1 59112U 24043Q 25352.35164917 .00027532 00000-0 57644-3 0 9992 2 59112 97.5329 128.8131 0009174 142.1338 218.0557 15.45371754 99842 MO-122 1 60209U 24125G 25352.09451983 .00026716 00000-0 53554-3 0 9994 2 60209 97.2516 202.4710 0014586 158.1797 202.0077 15.46576974 81435 GRBBeta 1 60237U 24128C 25352.59899402 .00004080 00000-0 29271-3 0 9994 2 60237 61.9894 129.0570 0056015 97.7276 263.0181 15.04813609 79077 Curium One 1 60242U 24128H 25352.56090157 .00007685 00000-0 47986-3 0 9994 2 60242 61.9789 123.9282 0055657 94.4872 266.2583 15.08998276 79165 ROBUSTA-3A 1 60243U 24128J 25352.56688485 .00006878 00000-0 43921-3 0 9990 2 60243 61.9862 125.4666 0055872 92.0099 268.7395 15.08305079 79144 CatSat 1 60246U 24125J 25352.51993723 .00034193 00000-0 81305-3 0 9998 2 60246 97.2308 199.8433 0034296 123.7333 236.7191 15.40947434 79413 HYPERVIEW-1G (RS66S) 1 61772U 24199AP 25352.62485361 .00036817 00000-0 69564-3 0 9998 2 61772 97.3207 222.1352 0008202 210.2118 149.8660 15.48308416106525 AO-123 1 61781U 24199AY 25352.61637774 .00008965 00000-0 29123-3 0 9994 2 61781 97.3248 218.0022 0013012 232.0136 127.9931 15.32072479106242 ZIMSAT 2 1 61783U 24199BA 25352.64122117 .00210619 00000-0 13365-2 0 9990 2 61783 97.3078 225.9089 0004715 160.4411 199.7037 15.75892832109938 HADES-R (SO-124) 1 62690U 25009CK 25351.96316463 .00147949 00000-0 17623-2 0 9998 2 62690 97.3878 74.7914 0001195 260.1615 99.9507 15.60601205 51591 HYDRA-T 1 62692U 25009CM 25352.19105371 .00172134 00000-0 18753-2 0 9999 2 62692 97.3865 75.2476 0001505 274.8464 85.2623 15.62842954 51640 JINJUSat 1B 1 63210U 25052A 25352.15971476 .00012978 00000-0 49405-3 0 9995 2 63210 97.4208 244.2816 0005014 33.7402 326.4155 15.26861485 42413 NUSHSAT 1 1 63211U 25052B 25352.28224037 .00017175 00000-0 63143-3 0 9993 2 63211 97.4190 244.5324 0005118 37.0942 323.0650 15.27949832 42442 TEVEL2-4 1 63213U 25052D 25352.22004022 .00015813 00000-0 59393-3 0 9998 2 63213 97.4108 244.0112 0004821 51.5127 308.6544 15.27261937 42421 TEVEL2-5 1 63214U 25052E 25352.61890214 .00013839 00000-0 52131-3 0 9997 2 63214 97.4108 244.3941 0004788 51.0867 309.0798 15.27195805 42485 TEVEL2-6 1 63215U 25052F 25352.42982063 .00015771 00000-0 59446-3 0 9994 2 63215 97.4111 244.1944 0004898 51.0314 309.1361 15.27144655 42451 TEVEL2-1 1 63217U 25052H 25352.14603100 .00013938 00000-0 53125-3 0 9998 2 63217 97.4083 243.7192 0005201 59.8889 300.2865 15.26801433 42402 TEVEL2-3 1 63218U 25052J 25352.60391340 .00014352 00000-0 54632-3 0 9995 2 63218 97.4084 244.1790 0005229 59.3561 300.8193 15.26837963 42479 TEVEL2-2 1 63219U 25052K 25352.21233311 .00015170 00000-0 57780-3 0 9992 2 63219 97.4085 243.7852 0005223 60.3842 299.7917 15.26806589 42417 TEVEL2-9 1 63237U 25052AD 25352.44318141 .00015003 00000-0 59731-3 0 9995 2 63237 97.4148 243.7125 0009205 66.1968 294.0234 15.25305104 42413 TEVEL2-7 1 63238U 25052AE 25352.58888303 .00013720 00000-0 54906-3 0 9996 2 63238 97.4148 243.8300 0009296 65.8778 294.3431 15.25151935 42430 TEVEL2-8 1 63239U 25052AF 25352.46339773 .00014608 00000-0 58483-3 0 9996 2 63239 97.4152 243.6902 0009317 66.4005 293.8211 15.25123708 42411 HYDRA-W 1 63490U 25052BL 25352.21863947 .00068284 00000-0 15821-2 0 9990 2 63490 97.4067 246.0800 0011289 57.9505 302.2837 15.42123797 42562 HADES-ICM (SO-125) 1 63492U 25052BN 25351.96064983 .00050303 00000-0 12519-2 0 9990 2 63492 97.4082 245.5345 0011625 61.2981 298.9432 15.40039410 42501 Dragonfly 1 65729U 98067XH 25352.58353461 .00166206 00000-0 11293-2 0 9990 2 65729 51.6249 105.7955 0007166 314.6867 45.3548 15.73865471 14084 RSP-03 1 65732U 98067XL 25352.53368180 .00121384 00000-0 97504-3 0 9991 2 65732 51.6263 106.9735 0005666 289.7816 70.2570 15.70075461 14072 GHS-01 1 65733U 98067XM 25352.58676697 .00217764 00000-0 12611-2 0 9995 2 65733 51.6277 105.0740 0007965 318.3708 41.6685 15.77352830 14105 BOTAN 1 65942U 98067XP 25352.40687507 .00105165 00000-0 10814-2 0 9994 2 65942 51.6278 110.6371 0002848 287.2475 72.8208 15.64050786 10755 BEE-1000 1 66650U 25274A 25352.25302033 .00001109 00000-0 11571-3 0 9997 2 66650 97.7399 279.3395 0010620 230.8945 129.1330 14.91680040 3226 SPIRONE 1 66657U 25274H 25352.37601035 .00001912 00000-0 19167-3 0 9992 2 66657 97.7399 279.4847 0010705 254.6812 105.3224 14.92487337 3242 K-HERO 1 66660U 25274L 25352.36862441 .00002323 00000-0 22869-3 0 9995 2 66660 97.7403 279.4958 0012525 260.0181 99.9625 14.92994009 3249 SNUGLITE-III DURI 1 66661U 25274M 25352.36650972 .00002126 00000-0 20906-3 0 9991 2 66661 97.7402 279.4978 0013141 261.2536 98.7195 14.93128425 3244 SilverSat 1 66909U 98067XV 25352.58523640 .00059069 00000-0 95010-3 0 9997 2 66909 51.6304 113.3244 0003867 263.4051 96.6498 15.52406005 2523 CEVROSAT1 1 98526U 25248E 25313.13142326 .00000000 00000-0 19360-3 0 02 2 98526 45.4084 218.4764 0001315 254.8982 242.1062 15.17981583 02